contact:dominique.lefevre@mio.osupytheas.fr, maurice.libes@osupytheas.fr, didier.mallarino@osupytheas.fr
Project:EMSO http://www.emso-fr.org/EMSO-France
Depth: 2436.0 m
Title:EMSO Ligure Ouest : Data MII capteur MICROCAT
DateTime_Computer,Latitude,Longitude,Temperature,Conductivity,Pressure,DateTime_Instrument
DateTime_Computer,Latitude,Longitude,degC,S m-1,dbar,DateTime_Instrument
2021-06-28T00:02:04Z,42.805,6.029,13.2998,4.60002,2470.53,2021-6-28T02:03:19Z
2021-06-28T00:05:07Z,42.805,6.029,13.2996,4.60003,2470.53,2021-6-28T02:06:22Z
2021-06-28T00:08:11Z,42.805,6.029,13.2994,4.60001,2470.52,2021-6-28T02:09:25Z
2021-06-28T00:11:14Z,42.805,6.029,13.3002,4.60008,2470.507,2021-6-28T02:12:28Z
2021-06-28T00:14:17Z,42.805,6.029,13.2997,4.60007,2470.483,2021-6-28T02:15:31Z
2021-06-28T00:17:20Z,42.805,6.029,13.2993,4.60000,2470.52,2021-6-28T02:18:34Z
2021-06-28T00:20:23Z,42.805,6.029,13.3005,4.60040,2470.497,2021-6-28T02:21:38Z
2021-06-28T00:23:26Z,42.805,6.029,13.3004,4.60015,2470.507,2021-6-28T02:24:41Z
2021-06-28T00:26:29Z,42.805,6.029,13.2998,4.60010,2470.497,2021-6-28T02:27:44Z
2021-06-28T00:29:32Z,42.805,6.029,13.3006,4.60027,2470.474,2021-6-28T02:30:47Z
2021-06-28T00:32:36Z,42.805,6.029,13.2997,4.60029,2470.483,2021-6-28T02:33:50Z
2021-06-28T00:35:39Z,42.805,6.029,13.2996,4.60009,2470.483,2021-6-28T02:36:53Z
2021-06-28T00:38:42Z,42.805,6.029,13.3010,4.60014,2470.46,2021-6-28T02:39:56Z
2021-06-28T00:41:45Z,42.805,6.029,13.3011,4.60031,2470.474,2021-6-28T02:42:59Z
2021-06-28T00:44:48Z,42.805,6.029,13.3014,4.60021,2470.46,2021-6-28T02:46:03Z
2021-06-28T00:47:51Z,42.805,6.029,13.2998,4.60001,2470.52,2021-6-28T02:49:06Z
2021-06-28T00:50:54Z,42.805,6.029,13.2995,4.60002,2470.474,2021-6-28T02:52:09Z
2021-06-28T00:53:57Z,42.805,6.029,13.3004,4.60017,2470.474,2021-6-28T02:55:12Z
2021-06-28T00:57:01Z,42.805,6.029,13.2995,4.59999,2470.437,2021-6-28T02:58:15Z
2021-06-28T01:00:04Z,42.805,6.029,13.2993,4.59999,2470.46,2021-6-28T03:01:18Z
2021-06-28T01:03:07Z,42.805,6.029,13.2992,4.59999,2470.46,2021-6-28T03:04:21Z
2021-06-28T01:06:10Z,42.805,6.029,13.3010,4.60021,2470.483,2021-6-28T03:07:24Z
2021-06-28T01:09:13Z,42.805,6.029,13.2994,4.60014,2470.474,2021-6-28T03:10:28Z
2021-06-28T01:12:16Z,42.805,6.029,13.3005,4.60005,2470.46,2021-6-28T03:13:31Z
2021-06-28T01:15:19Z,42.805,6.029,13.2994,4.60003,2470.46,2021-6-28T03:16:34Z
2021-06-28T01:18:22Z,42.805,6.029,13.3003,4.60009,2470.45,2021-6-28T03:19:37Z
2021-06-28T01:21:26Z,42.805,6.029,13.3000,4.60003,2470.413,2021-6-28T03:22:40Z
2021-06-28T01:24:29Z,42.805,6.029,13.3011,4.60016,2470.45,2021-6-28T03:25:43Z
2021-06-28T01:27:32Z,42.805,6.029,13.2991,4.59999,2470.437,2021-6-28T03:28:46Z
2021-06-28T01:30:35Z,42.805,6.029,13.2996,4.60004,2470.46,2021-6-28T03:31:49Z
2021-06-28T01:33:38Z,42.805,6.029,13.3005,4.60012,2470.437,2021-6-28T03:34:53Z
2021-06-28T01:36:41Z,42.805,6.029,13.3002,4.60013,2470.46,2021-6-28T03:37:56Z
2021-06-28T01:39:44Z,42.805,6.029,13.3010,4.60003,2470.413,2021-6-28T03:40:59Z
2021-06-28T01:42:47Z,42.805,6.029,13.3009,4.60031,2470.413,2021-6-28T03:44:02Z
2021-06-28T01:45:51Z,42.805,6.029,13.3005,4.60014,2470.404,2021-6-28T03:47:05Z
2021-06-28T01:48:54Z,42.805,6.029,13.2991,4.59999,2470.413,2021-6-28T03:50:08Z
2021-06-28T01:51:57Z,42.805,6.029,13.2996,4.60006,2470.39,2021-6-28T03:53:11Z
2021-06-28T01:55:00Z,42.805,6.029,13.2995,4.60021,2470.413,2021-6-28T03:56:14Z
2021-06-28T01:58:03Z,42.805,6.029,13.3002,4.60029,2470.38,2021-6-28T03:59:18Z
2021-06-28T02:01:06Z,42.805,6.029,13.2992,4.60000,2470.39,2021-6-28T04:02:21Z
2021-06-28T02:04:09Z,42.805,6.029,13.3002,4.60009,2470.427,2021-6-28T04:05:24Z
2021-06-28T02:07:12Z,42.805,6.029,13.2994,4.60000,2470.39,2021-6-28T04:08:27Z
2021-06-28T02:10:15Z,42.805,6.029,13.3004,4.60020,2470.427,2021-6-28T04:11:30Z
2021-06-28T02:13:19Z,42.805,6.029,13.3000,4.60003,2470.39,2021-6-28T04:14:33Z
2021-06-28T02:16:22Z,42.805,6.029,13.2991,4.59999,2470.39,2021-6-28T04:17:36Z
2021-06-28T02:19:25Z,42.805,6.029,13.2995,4.60009,2470.39,2021-6-28T04:20:39Z
2021-06-28T02:22:28Z,42.805,6.029,13.2991,4.59999,2470.404,2021-6-28T04:23:43Z
2021-06-28T02:25:31Z,42.805,6.029,13.2993,4.59998,2470.366,2021-6-28T04:26:46Z
2021-06-28T02:28:34Z,42.805,6.029,13.2995,4.59998,2470.427,2021-6-28T04:29:49Z
2021-06-28T02:31:37Z,42.805,6.029,13.2993,4.60001,2470.427,2021-6-28T04:32:52Z
2021-06-28T02:34:40Z,42.805,6.029,13.2996,4.60011,2470.404,2021-6-28T04:35:55Z
2021-06-28T02:37:44Z,42.805,6.029,13.2991,4.60000,2470.404,2021-6-28T04:38:58Z
2021-06-28T02:40:47Z,42.805,6.029,13.2998,4.60018,2470.404,2021-6-28T04:42:01Z
2021-06-28T02:43:50Z,42.805,6.029,13.2991,4.60005,2470.413,2021-6-28T04:45:04Z
2021-06-28T02:46:53Z,42.805,6.029,13.3005,4.60014,2470.38,2021-6-28T04:48:08Z
2021-06-28T02:49:56Z,42.805,6.029,13.3013,4.60025,2470.366,2021-6-28T04:51:11Z
2021-06-28T02:52:59Z,42.805,6.029,13.3001,4.60009,2470.427,2021-6-28T04:54:14Z
2021-06-28T02:56:02Z,42.805,6.029,13.3002,4.60013,2470.38,2021-6-28T04:57:17Z
2021-06-28T02:59:05Z,42.805,6.029,13.3012,4.60009,2470.366,2021-6-28T05:00:20Z
2021-06-28T03:02:09Z,42.805,6.029,13.3007,4.60015,2470.366,2021-6-28T05:03:23Z
2021-06-28T03:05:12Z,42.805,6.029,13.2997,4.60023,2470.38,2021-6-28T05:06:26Z
2021-06-28T03:08:15Z,42.805,6.029,13.2998,4.60001,2470.366,2021-6-28T05:09:29Z
2021-06-28T03:11:18Z,42.805,6.029,13.3004,4.60003,2470.343,2021-6-28T05:12:33Z
2021-06-28T03:14:21Z,42.805,6.029,13.3004,4.60020,2470.404,2021-6-28T05:15:36Z
2021-06-28T03:17:24Z,42.805,6.029,13.2997,4.60008,2470.366,2021-6-28T05:18:39Z
2021-06-28T03:20:27Z,42.805,6.029,13.2991,4.60000,2470.343,2021-6-28T05:21:42Z
2021-06-28T03:23:30Z,42.805,6.029,13.3011,4.60023,2470.39,2021-6-28T05:24:45Z
2021-06-28T03:26:34Z,42.805,6.029,13.3003,4.60009,2470.366,2021-6-28T05:27:48Z
2021-06-28T03:29:37Z,42.805,6.029,13.3014,4.60020,2470.366,2021-6-28T05:30:51Z
2021-06-28T03:32:40Z,42.805,6.029,13.3006,4.60026,2470.38,2021-6-28T05:33:54Z
2021-06-28T03:35:43Z,42.805,6.029,13.3006,4.60005,2470.343,2021-6-28T05:36:57Z
2021-06-28T03:38:46Z,42.805,6.029,13.3007,4.60019,2470.32,2021-6-28T05:40:01Z
2021-06-28T03:41:49Z,42.805,6.029,13.2996,4.60006,2470.38,2021-6-28T05:43:04Z
2021-06-28T03:44:52Z,42.805,6.029,13.2993,4.60001,2470.343,2021-6-28T05:46:07Z
2021-06-28T03:47:55Z,42.805,6.029,13.2998,4.60003,2470.32,2021-6-28T05:49:10Z
2021-06-28T03:50:59Z,42.805,6.029,13.2991,4.59998,2470.32,2021-6-28T05:52:13Z
2021-06-28T03:54:02Z,42.805,6.029,13.2990,4.59999,2470.357,2021-6-28T05:55:16Z
2021-06-28T03:57:05Z,42.805,6.029,13.3000,4.60003,2470.297,2021-6-28T05:58:19Z
2021-06-28T04:00:08Z,42.805,6.029,13.3004,4.60016,2470.357,2021-6-28T06:01:23Z
2021-06-28T04:03:11Z,42.805,6.029,13.3001,4.60031,2470.32,2021-6-28T06:04:26Z
2021-06-28T04:06:14Z,42.805,6.029,13.2996,4.60010,2470.343,2021-6-28T06:07:29Z
2021-06-28T04:09:17Z,42.805,6.029,13.3014,4.60019,2470.32,2021-6-28T06:10:32Z
2021-06-28T04:12:20Z,42.805,6.029,13.3001,4.60016,2470.366,2021-6-28T06:13:35Z
2021-06-28T04:15:24Z,42.805,6.029,13.3008,4.60018,2470.334,2021-6-28T06:16:38Z
2021-06-28T04:18:27Z,42.805,6.029,13.3009,4.60020,2470.357,2021-6-28T06:19:41Z
2021-06-28T04:21:30Z,42.805,6.029,13.3011,4.60029,2470.334,2021-6-28T06:22:44Z
2021-06-28T04:24:33Z,42.805,6.029,13.3007,4.60019,2470.357,2021-6-28T06:25:47Z
2021-06-28T04:27:36Z,42.805,6.029,13.2993,4.60001,2470.31,2021-6-28T06:28:51Z
2021-06-28T04:30:39Z,42.805,6.029,13.2993,4.60019,2470.343,2021-6-28T06:31:54Z
2021-06-28T04:33:42Z,42.805,6.029,13.3004,4.60011,2470.32,2021-6-28T06:34:57Z
2021-06-28T04:36:45Z,42.805,6.029,13.2996,4.60003,2470.32,2021-6-28T06:38:00Z
2021-06-28T04:39:49Z,42.805,6.029,13.2990,4.59999,2470.334,2021-6-28T06:41:03Z
2021-06-28T04:42:52Z,42.805,6.029,13.2992,4.60000,2470.32,2021-6-28T06:44:06Z
2021-06-28T04:45:55Z,42.805,6.029,13.2991,4.60005,2470.357,2021-6-28T06:47:09Z
2021-06-28T04:48:58Z,42.805,6.029,13.3012,4.60022,2470.357,2021-6-28T06:50:12Z
2021-06-28T04:52:01Z,42.805,6.029,13.3009,4.60033,2470.357,2021-6-28T06:53:16Z
2021-06-28T04:55:04Z,42.805,6.029,13.3006,4.60012,2470.334,2021-6-28T06:56:19Z
2021-06-28T04:58:07Z,42.805,6.029,13.2994,4.59999,2470.357,2021-6-28T06:59:22Z
2021-06-28T05:01:10Z,42.805,6.029,13.2991,4.59998,2470.32,2021-6-28T07:02:25Z
2021-06-28T05:04:14Z,42.805,6.029,13.2992,4.60009,2470.32,2021-6-28T07:05:28Z
2021-06-28T05:07:17Z,42.805,6.029,13.2993,4.60009,2470.334,2021-6-28T07:08:31Z
2021-06-28T05:10:20Z,42.805,6.029,13.3002,4.60019,2470.334,2021-6-28T07:11:34Z
2021-06-28T05:13:23Z,42.805,6.029,13.3006,4.60015,2470.343,2021-6-28T07:14:37Z
2021-06-28T05:16:26Z,42.805,6.029,13.2992,4.59998,2470.343,2021-6-28T07:17:41Z
2021-06-28T05:19:29Z,42.805,6.029,13.2991,4.59998,2470.357,2021-6-28T07:20:44Z
2021-06-28T05:22:32Z,42.805,6.029,13.3015,4.60008,2470.343,2021-6-28T07:23:47Z
2021-06-28T05:25:35Z,42.805,6.029,13.2992,4.60001,2470.357,2021-6-28T07:26:50Z
2021-06-28T05:28:39Z,42.805,6.029,13.2995,4.60014,2470.357,2021-6-28T07:29:53Z
2021-06-28T05:31:42Z,42.805,6.029,13.3008,4.60025,2470.343,2021-6-28T07:32:56Z
2021-06-28T05:34:45Z,42.805,6.029,13.3004,4.60016,2470.38,2021-6-28T07:35:59Z
2021-06-28T05:37:48Z,42.805,6.029,13.2998,4.60015,2470.334,2021-6-28T07:39:02Z
2021-06-28T05:40:51Z,42.805,6.029,13.3004,4.60016,2470.32,2021-6-28T07:42:06Z
2021-06-28T05:43:54Z,42.805,6.029,13.3004,4.60019,2470.366,2021-6-28T07:45:09Z
2021-06-28T05:46:57Z,42.805,6.029,13.2994,4.60001,2470.32,2021-6-28T07:48:12Z
2021-06-28T05:50:00Z,42.805,6.029,13.2996,4.60000,2470.343,2021-6-28T07:51:15Z
2021-06-28T05:53:04Z,42.805,6.029,13.2996,4.60002,2470.357,2021-6-28T07:54:18Z
2021-06-28T05:56:07Z,42.805,6.029,13.2993,4.59998,2470.343,2021-6-28T07:57:21Z
2021-06-28T05:59:10Z,42.805,6.029,13.2990,4.59999,2470.32,2021-6-28T08:00:24Z
2021-06-28T06:02:13Z,42.805,6.029,13.2993,4.60008,2470.357,2021-6-28T08:03:27Z
2021-06-28T06:05:16Z,42.805,6.029,13.2992,4.59999,2470.32,2021-6-28T08:06:31Z
2021-06-28T06:08:19Z,42.805,6.029,13.2997,4.60011,2470.357,2021-6-28T08:09:34Z
2021-06-28T06:11:22Z,42.805,6.029,13.2998,4.60006,2470.357,2021-6-28T08:12:37Z
2021-06-28T06:14:25Z,42.805,6.029,13.2991,4.59999,2470.366,2021-6-28T08:15:40Z
2021-06-28T06:17:28Z,42.805,6.029,13.2990,4.59999,2470.357,2021-6-28T08:18:43Z
2021-06-28T06:20:32Z,42.805,6.029,13.2991,4.59998,2470.357,2021-6-28T08:21:46Z
2021-06-28T06:23:35Z,42.805,6.029,13.2990,4.59998,2470.366,2021-6-28T08:24:49Z
2021-06-28T06:26:38Z,42.805,6.029,13.2995,4.59998,2470.334,2021-6-28T08:27:52Z
2021-06-28T06:29:41Z,42.805,6.029,13.2996,4.59998,2470.39,2021-6-28T08:30:55Z
2021-06-28T06:32:44Z,42.805,6.029,13.2991,4.59999,2470.343,2021-6-28T08:33:59Z
2021-06-28T06:35:47Z,42.805,6.029,13.2991,4.59999,2470.343,2021-6-28T08:37:02Z
2021-06-28T06:38:50Z,42.805,6.029,13.2995,4.60002,2470.343,2021-6-28T08:40:05Z
2021-06-28T06:41:53Z,42.805,6.029,13.3001,4.60016,2470.366,2021-6-28T08:43:08Z
2021-06-28T06:44:57Z,42.805,6.029,13.2994,4.60016,2470.32,2021-6-28T08:46:11Z
2021-06-28T06:48:00Z,42.805,6.029,13.2991,4.60000,2470.366,2021-6-28T08:49:14Z
2021-06-28T06:51:03Z,42.805,6.029,13.2988,4.59999,2470.39,2021-6-28T08:52:17Z
2021-06-28T06:54:06Z,42.805,6.029,13.2998,4.60001,2470.366,2021-6-28T08:55:20Z
2021-06-28T06:57:09Z,42.805,6.029,13.2992,4.60011,2470.366,2021-6-28T08:58:24Z
2021-06-28T07:00:12Z,42.805,6.029,13.3005,4.60016,2470.38,2021-6-28T09:01:27Z
2021-06-28T07:03:15Z,42.805,6.029,13.3009,4.60009,2470.427,2021-6-28T09:04:30Z
2021-06-28T07:06:18Z,42.805,6.029,13.2993,4.59999,2470.39,2021-6-28T09:07:33Z
2021-06-28T07:09:22Z,42.805,6.029,13.2990,4.59999,2470.38,2021-6-28T09:10:36Z
2021-06-28T07:12:25Z,42.805,6.029,13.2996,4.60011,2470.366,2021-6-28T09:13:39Z
2021-06-28T07:15:28Z,42.805,6.029,13.3009,4.60016,2470.404,2021-6-28T09:16:42Z
2021-06-28T07:18:31Z,42.805,6.029,13.2990,4.59999,2470.39,2021-6-28T09:19:45Z
2021-06-28T07:21:34Z,42.805,6.029,13.2993,4.59999,2470.39,2021-6-28T09:22:49Z
2021-06-28T07:24:37Z,42.805,6.029,13.2993,4.60008,2470.366,2021-6-28T09:25:52Z
2021-06-28T07:27:40Z,42.805,6.029,13.2991,4.60003,2470.404,2021-6-28T09:28:55Z
2021-06-28T07:30:43Z,42.805,6.029,13.3000,4.60018,2470.39,2021-6-28T09:31:58Z
2021-06-28T07:33:47Z,42.805,6.029,13.2997,4.60009,2470.427,2021-6-28T09:35:01Z
2021-06-28T07:36:50Z,42.805,6.029,13.2996,4.60013,2470.404,2021-6-28T09:38:04Z
2021-06-28T07:39:53Z,42.805,6.029,13.3011,4.60028,2470.413,2021-6-28T09:41:07Z
2021-06-28T07:42:56Z,42.805,6.029,13.3006,4.60004,2470.39,2021-6-28T09:44:10Z
2021-06-28T07:45:59Z,42.805,6.029,13.2992,4.59999,2470.413,2021-6-28T09:47:14Z
2021-06-28T07:49:02Z,42.805,6.029,13.2996,4.59999,2470.366,2021-6-28T09:50:17Z
2021-06-28T07:52:05Z,42.805,6.029,13.2991,4.59999,2470.366,2021-6-28T09:53:20Z
2021-06-28T07:55:08Z,42.805,6.029,13.3004,4.60020,2470.366,2021-6-28T09:56:23Z
2021-06-28T07:58:12Z,42.805,6.029,13.3009,4.60019,2470.39,2021-6-28T09:59:26Z
2021-06-28T08:01:15Z,42.805,6.029,13.3006,4.60011,2470.39,2021-6-28T10:02:29Z
2021-06-28T08:04:18Z,42.805,6.029,13.3011,4.60002,2470.404,2021-6-28T10:05:32Z
2021-06-28T08:07:21Z,42.805,6.029,13.3001,4.60023,2470.38,2021-6-28T10:08:35Z
2021-06-28T08:10:24Z,42.805,6.029,13.3009,4.60026,2470.39,2021-6-28T10:11:39Z
2021-06-28T08:13:27Z,42.805,6.029,13.3008,4.60021,2470.39,2021-6-28T10:14:42Z
2021-06-28T08:16:30Z,42.805,6.029,13.2995,4.60002,2470.427,2021-6-28T10:17:45Z
2021-06-28T08:19:33Z,42.805,6.029,13.2998,4.60014,2470.427,2021-6-28T10:20:48Z
2021-06-28T08:22:37Z,42.805,6.029,13.2996,4.60003,2470.413,2021-6-28T10:23:51Z
2021-06-28T08:25:40Z,42.805,6.029,13.2996,4.60006,2470.39,2021-6-28T10:26:54Z
2021-06-28T08:28:43Z,42.805,6.029,13.2996,4.60000,2470.45,2021-6-28T10:29:57Z
2021-06-28T08:31:46Z,42.805,6.029,13.2997,4.60001,2470.413,2021-6-28T10:33:01Z
2021-06-28T08:34:49Z,42.805,6.029,13.3005,4.60019,2470.45,2021-6-28T10:36:04Z
2021-06-28T08:37:52Z,42.805,6.029,13.2999,4.60021,2470.399,2021-6-28T10:39:07Z
2021-06-28T08:40:55Z,42.805,6.029,13.2994,4.60000,2470.413,2021-6-28T10:42:10Z
2021-06-28T08:43:58Z,42.805,6.029,13.2990,4.60000,2470.437,2021-6-28T10:45:13Z
2021-06-28T08:47:02Z,42.805,6.029,13.2996,4.60014,2470.427,2021-6-28T10:48:16Z
2021-06-28T08:50:05Z,42.805,6.029,13.2994,4.60019,2470.39,2021-6-28T10:51:19Z
2021-06-28T08:53:08Z,42.805,6.029,13.3011,4.60014,2470.366,2021-6-28T10:54:22Z
2021-06-28T08:56:11Z,42.805,6.029,13.3000,4.60013,2470.413,2021-6-28T10:57:26Z
2021-06-28T08:59:14Z,42.805,6.029,13.2993,4.60000,2470.427,2021-6-28T11:00:29Z
2021-06-28T09:02:17Z,42.805,6.029,13.2992,4.59999,2470.437,2021-6-28T11:03:32Z
2021-06-28T09:05:20Z,42.805,6.029,13.3002,4.60021,2470.45,2021-6-28T11:06:35Z
2021-06-28T09:08:24Z,42.805,6.029,13.3006,4.60011,2470.427,2021-6-28T11:09:38Z
2021-06-28T09:11:27Z,42.805,6.029,13.2991,4.60003,2470.413,2021-6-28T11:12:41Z
2021-06-28T09:14:30Z,42.805,6.029,13.3001,4.60016,2470.413,2021-6-28T11:15:44Z
2021-06-28T09:17:33Z,42.805,6.029,13.3012,4.60013,2470.376,2021-6-28T11:18:47Z
2021-06-28T09:20:36Z,42.805,6.029,13.2996,4.60001,2470.46,2021-6-28T11:21:51Z
2021-06-28T09:23:39Z,42.805,6.029,13.2994,4.60003,2470.46,2021-6-28T11:24:54Z
2021-06-28T09:26:42Z,42.805,6.029,13.3007,4.60013,2470.45,2021-6-28T11:27:57Z
2021-06-28T09:29:45Z,42.805,6.029,13.3000,4.60019,2470.413,2021-6-28T11:31:00Z
2021-06-28T09:32:49Z,42.805,6.029,13.2996,4.60006,2470.427,2021-6-28T11:34:03Z
2021-06-28T09:35:52Z,42.805,6.029,13.2999,4.60003,2470.437,2021-6-28T11:37:06Z
2021-06-28T09:38:55Z,42.805,6.029,13.3001,4.60003,2470.46,2021-6-28T11:40:09Z
2021-06-28T09:41:58Z,42.805,6.029,13.2991,4.60000,2470.45,2021-6-28T11:43:12Z
2021-06-28T09:45:01Z,42.805,6.029,13.2994,4.60009,2470.45,2021-6-28T11:46:16Z
2021-06-28T09:48:04Z,42.805,6.029,13.2993,4.60001,2470.45,2021-6-28T11:49:19Z
2021-06-28T09:51:07Z,42.805,6.029,13.2992,4.60000,2470.427,2021-6-28T11:52:22Z
2021-06-28T09:54:10Z,42.805,6.029,13.2997,4.60002,2470.427,2021-6-28T11:55:25Z
2021-06-28T09:57:14Z,42.805,6.029,13.3008,4.60010,2470.45,2021-6-28T11:58:28Z
2021-06-28T10:00:17Z,42.805,6.029,13.3004,4.60016,2470.437,2021-6-28T12:01:31Z
2021-06-28T10:03:20Z,42.805,6.029,13.3003,4.60004,2470.413,2021-6-28T12:04:34Z
2021-06-28T10:06:23Z,42.805,6.029,13.3001,4.60004,2470.427,2021-6-28T12:07:37Z
2021-06-28T10:09:26Z,42.805,6.029,13.3004,4.60017,2470.413,2021-6-28T12:10:41Z
2021-06-28T10:12:29Z,42.805,6.029,13.2995,4.60013,2470.437,2021-6-28T12:13:44Z
2021-06-28T10:15:32Z,42.805,6.029,13.2998,4.60005,2470.437,2021-6-28T12:16:47Z
2021-06-28T10:18:35Z,42.805,6.029,13.2999,4.60010,2470.413,2021-6-28T12:19:50Z
2021-06-28T10:21:39Z,42.805,6.029,13.3000,4.59999,2470.427,2021-6-28T12:22:53Z
2021-06-28T10:24:42Z,42.805,6.029,13.3009,4.60010,2470.404,2021-6-28T12:25:56Z
2021-06-28T10:27:45Z,42.805,6.029,13.2998,4.60014,2470.423,2021-6-28T12:28:59Z
2021-06-28T10:30:48Z,42.805,6.029,13.3006,4.60014,2470.39,2021-6-28T12:32:03Z
2021-06-28T10:33:51Z,42.805,6.029,13.2993,4.60003,2470.427,2021-6-28T12:35:06Z
2021-06-28T10:36:54Z,42.805,6.029,13.2998,4.60001,2470.404,2021-6-28T12:38:09Z
2021-06-28T10:39:57Z,42.805,6.029,13.3004,4.60015,2470.437,2021-6-28T12:41:12Z
2021-06-28T10:43:00Z,42.805,6.029,13.2999,4.60001,2470.427,2021-6-28T12:44:15Z
2021-06-28T10:46:04Z,42.805,6.029,13.2993,4.60009,2470.427,2021-6-28T12:47:18Z
2021-06-28T10:49:07Z,42.805,6.029,13.2996,4.60013,2470.38,2021-6-28T12:50:21Z
2021-06-28T10:52:10Z,42.805,6.029,13.3005,4.60017,2470.413,2021-6-28T12:53:24Z
2021-06-28T10:55:13Z,42.805,6.029,13.3006,4.60018,2470.343,2021-6-28T12:56:28Z
2021-06-28T10:58:16Z,42.805,6.029,13.3018,4.60003,2470.39,2021-6-28T12:59:31Z
2021-06-28T11:01:19Z,42.805,6.029,13.3006,4.60010,2470.39,2021-6-28T13:02:34Z
2021-06-28T11:04:22Z,42.805,6.029,13.2994,4.60005,2470.427,2021-6-28T13:05:37Z
2021-06-28T11:07:25Z,42.805,6.029,13.3007,4.60028,2470.366,2021-6-28T13:08:40Z
2021-06-28T11:10:29Z,42.805,6.029,13.3009,4.60026,2470.39,2021-6-28T13:11:43Z
2021-06-28T11:13:32Z,42.805,6.029,13.3009,4.60019,2470.39,2021-6-28T13:14:46Z
2021-06-28T11:16:35Z,42.805,6.029,13.3004,4.60020,2470.413,2021-6-28T13:17:49Z
2021-06-28T11:19:38Z,42.805,6.029,13.3002,4.60021,2470.39,2021-6-28T13:20:53Z
2021-06-28T11:22:41Z,42.805,6.029,13.2996,4.60010,2470.413,2021-6-28T13:23:56Z
2021-06-28T11:25:44Z,42.805,6.029,13.2998,4.60002,2470.404,2021-6-28T13:26:59Z
2021-06-28T11:28:47Z,42.805,6.029,13.2991,4.60010,2470.437,2021-6-28T13:30:02Z
2021-06-28T11:31:50Z,42.805,6.029,13.2996,4.60011,2470.413,2021-6-28T13:33:05Z
2021-06-28T11:34:54Z,42.805,6.029,13.3005,4.60014,2470.413,2021-6-28T13:36:08Z
2021-06-28T11:37:57Z,42.805,6.029,13.3005,4.60013,2470.39,2021-6-28T13:39:11Z
2021-06-28T11:41:00Z,42.805,6.029,13.3004,4.60013,2470.404,2021-6-28T13:42:14Z
2021-06-28T11:44:03Z,42.805,6.029,13.3015,4.60020,2470.366,2021-6-28T13:45:18Z
2021-06-28T11:47:06Z,42.805,6.029,13.3011,4.60011,2470.343,2021-6-28T13:48:21Z
2021-06-28T11:50:09Z,42.805,6.029,13.3004,4.60014,2470.39,2021-6-28T13:51:24Z
2021-06-28T11:53:12Z,42.805,6.029,13.3007,4.60011,2470.404,2021-6-28T13:54:27Z
2021-06-28T11:56:16Z,42.805,6.029,13.3007,4.60023,2470.366,2021-6-28T13:57:30Z
2021-06-28T11:59:19Z,42.805,6.029,13.3002,4.60040,2470.366,2021-6-28T14:00:33Z
2021-06-28T12:02:22Z,42.805,6.029,13.3004,4.60037,2470.39,2021-6-28T14:03:36Z
2021-06-28T12:05:25Z,42.805,6.029,13.3003,4.60049,2470.38,2021-6-28T14:06:39Z
2021-06-28T12:08:28Z,42.805,6.029,13.3002,4.60041,2470.404,2021-6-28T14:09:43Z
2021-06-28T12:11:31Z,42.805,6.029,13.3005,4.60025,2470.366,2021-6-28T14:12:46Z
2021-06-28T12:14:34Z,42.805,6.029,13.3012,4.60038,2470.38,2021-6-28T14:15:49Z
2021-06-28T12:17:37Z,42.805,6.029,13.3009,4.60023,2470.32,2021-6-28T14:18:52Z
2021-06-28T12:20:41Z,42.805,6.029,13.3010,4.60017,2470.343,2021-6-28T14:21:55Z
2021-06-28T12:23:44Z,42.805,6.029,13.3010,4.60013,2470.366,2021-6-28T14:24:58Z
2021-06-28T12:26:47Z,42.805,6.029,13.3004,4.60047,2470.38,2021-6-28T14:28:01Z
2021-06-28T12:29:50Z,42.805,6.029,13.3009,4.60034,2470.366,2021-6-28T14:31:04Z
2021-06-28T12:32:53Z,42.805,6.029,13.3014,4.60036,2470.366,2021-6-28T14:34:08Z
2021-06-28T12:35:56Z,42.805,6.029,13.3011,4.60014,2470.366,2021-6-28T14:37:11Z
2021-06-28T12:38:59Z,42.805,6.029,13.3006,4.60031,2470.357,2021-6-28T14:40:14Z
2021-06-28T12:42:02Z,42.805,6.029,13.3005,4.60041,2470.357,2021-6-28T14:43:17Z
2021-06-28T12:45:06Z,42.805,6.029,13.3000,4.60039,2470.38,2021-6-28T14:46:20Z
2021-06-28T12:48:09Z,42.805,6.029,13.3003,4.60043,2470.366,2021-6-28T14:49:23Z
2021-06-28T12:51:12Z,42.805,6.029,13.3009,4.60039,2470.343,2021-6-28T14:52:26Z
2021-06-28T12:54:15Z,42.805,6.029,13.3003,4.60026,2470.366,2021-6-28T14:55:30Z
2021-06-28T12:57:18Z,42.805,6.029,13.3008,4.60016,2470.357,2021-6-28T14:58:33Z
2021-06-28T13:00:21Z,42.805,6.029,13.3004,4.60016,2470.366,2021-6-28T15:01:36Z
2021-06-28T13:03:24Z,42.805,6.029,13.3006,4.60034,2470.343,2021-6-28T15:04:39Z
2021-06-28T13:06:27Z,42.805,6.029,13.3006,4.60019,2470.32,2021-6-28T15:07:42Z
2021-06-28T13:09:31Z,42.805,6.029,13.3009,4.60024,2470.32,2021-6-28T15:10:45Z
2021-06-28T13:12:34Z,42.805,6.029,13.3000,4.60046,2470.357,2021-6-28T15:13:48Z
2021-06-28T13:15:37Z,42.805,6.029,13.3012,4.60046,2470.32,2021-6-28T15:16:51Z
2021-06-28T13:18:40Z,42.805,6.029,13.3014,4.60031,2470.343,2021-6-28T15:19:55Z
2021-06-28T13:21:43Z,42.805,6.029,13.3002,4.60039,2470.343,2021-6-28T15:22:58Z
2021-06-28T13:24:46Z,42.805,6.029,13.3001,4.60031,2470.38,2021-6-28T15:26:01Z
2021-06-28T13:27:49Z,42.805,6.029,13.3015,4.60025,2470.343,2021-6-28T15:29:04Z
2021-06-28T13:30:52Z,42.805,6.029,13.2997,4.60033,2470.357,2021-6-28T15:32:07Z
2021-06-28T13:33:56Z,42.805,6.029,13.3003,4.60031,2470.334,2021-6-28T15:35:10Z
2021-06-28T13:36:59Z,42.805,6.029,13.3007,4.60030,2470.357,2021-6-28T15:38:13Z
2021-06-28T13:40:02Z,42.805,6.029,13.3013,4.60069,2470.343,2021-6-28T15:41:16Z
2021-06-28T13:43:05Z,42.805,6.029,13.3006,4.60031,2470.357,2021-6-28T15:44:20Z
2021-06-28T13:46:08Z,42.805,6.029,13.2997,4.60025,2470.32,2021-6-28T15:47:23Z
2021-06-28T13:49:11Z,42.805,6.029,13.2998,4.60026,2470.32,2021-6-28T15:50:26Z
2021-06-28T13:52:14Z,42.805,6.029,13.3011,4.60024,2470.31,2021-6-28T15:53:29Z
2021-06-28T13:55:18Z,42.805,6.029,13.3009,4.60033,2470.343,2021-6-28T15:56:32Z
2021-06-28T13:58:21Z,42.805,6.029,13.3011,4.60042,2470.366,2021-6-28T15:59:35Z
2021-06-28T14:01:24Z,42.805,6.029,13.3013,4.60018,2470.334,2021-6-28T16:02:38Z
2021-06-28T14:04:27Z,42.805,6.029,13.3004,4.60039,2470.334,2021-6-28T16:05:41Z
2021-06-28T14:07:30Z,42.805,6.029,13.3010,4.60026,2470.334,2021-6-28T16:08:45Z
2021-06-28T14:10:33Z,42.805,6.029,13.3004,4.60052,2470.31,2021-6-28T16:11:48Z
2021-06-28T14:13:36Z,42.805,6.029,13.3007,4.60027,2470.343,2021-6-28T16:14:51Z
2021-06-28T14:16:39Z,42.805,6.029,13.3011,4.60022,2470.297,2021-6-28T16:17:54Z
2021-06-28T14:19:43Z,42.805,6.029,13.3000,4.60040,2470.297,2021-6-28T16:20:57Z
2021-06-28T14:22:46Z,42.805,6.029,13.3000,4.60030,2470.31,2021-6-28T16:24:00Z
2021-06-28T14:25:49Z,42.805,6.029,13.3006,4.60053,2470.297,2021-6-28T16:27:03Z
2021-06-28T14:28:52Z,42.805,6.029,13.2998,4.60026,2470.32,2021-6-28T16:30:07Z
2021-06-28T14:31:55Z,42.805,6.029,13.3011,4.60014,2470.334,2021-6-28T16:33:10Z
2021-06-28T14:34:58Z,42.805,6.029,13.3009,4.60025,2470.287,2021-6-28T16:36:13Z
2021-06-28T14:38:01Z,42.805,6.029,13.3005,4.60039,2470.273,2021-6-28T16:39:16Z
2021-06-28T14:41:04Z,42.805,6.029,13.3011,4.60014,2470.334,2021-6-28T16:42:19Z
2021-06-28T14:44:08Z,42.805,6.029,13.3011,4.60022,2470.334,2021-6-28T16:45:22Z
2021-06-28T14:47:11Z,42.805,6.029,13.3000,4.60026,2470.32,2021-6-28T16:48:25Z
2021-06-28T14:50:14Z,42.805,6.029,13.3006,4.60038,2470.31,2021-6-28T16:51:28Z
2021-06-28T14:53:17Z,42.805,6.029,13.3009,4.60041,2470.297,2021-6-28T16:54:32Z
2021-06-28T14:56:20Z,42.805,6.029,13.3002,4.60058,2470.334,2021-6-28T16:57:35Z
2021-06-28T14:59:23Z,42.805,6.029,13.3015,4.60027,2470.334,2021-6-28T17:00:38Z
2021-06-28T15:02:26Z,42.805,6.029,13.3013,4.60023,2470.297,2021-6-28T17:03:41Z
2021-06-28T15:05:29Z,42.805,6.029,13.3002,4.60040,2470.297,2021-6-28T17:06:44Z
2021-06-28T15:08:33Z,42.805,6.029,13.3006,4.60023,2470.32,2021-6-28T17:09:47Z
2021-06-28T15:11:36Z,42.805,6.029,13.3017,4.60021,2470.334,2021-6-28T17:12:50Z
2021-06-28T15:14:39Z,42.805,6.029,13.3009,4.60029,2470.297,2021-6-28T17:15:53Z